When you browse on this site, cookies collect data to enhance your experience and personalize the content and advertising you see.
Visit our Privacy Policy to learn more. By continuing to use the site, you agree to this use of cookies and data.
  • In Czech Republic
  • List of Countries
  • For 7 days
  • Water Temperature
  • Satellite Maps
  • Weather Map
  • Weather Widgets
  • user-avatar
    Login

    Hourly Weather Bafatá

    Today, 22 July, Monday

    Time Temperature Precipitation Wind Pressure Humidity
    00:00 +26°C° 0 mm 2 mps 758 mmHg 95%
    01:00 +26°C° 0 mm 2 mps 757 mmHg 95%
    02:00 +26°C° 0 mm 1 mps 757 mmHg 96%
    03:00 +26°C° 0 mm 1 mps 757 mmHg 96%
    04:00 +26°C° 0 mm 1 mps 757 mmHg 95%
    05:00 +24°C° 0 mm 0 mps 757 mmHg 95%
    06:00 +26°C° 0.1 mm 1 mps 758 mmHg 92%
    07:00 +27°C° 0.1 mm 1 mps 758 mmHg 90%
    08:00 +28°C° 0.1 mm 1 mps 758 mmHg 87%
    09:00 +28°C° 1.1 mm 2 mps 758 mmHg 89%
    10:00 +27°C° 1.1 mm 2 mps 758 mmHg 90%
    11:00 +27°C° 1.1 mm 3 mps 758 mmHg 91%
    12:00 +28°C° 0.3 mm 2 mps 757 mmHg 88%
    13:00 +29°C° 0.3 mm 2 mps 757 mmHg 85%
    14:00 +29°C° 0.3 mm 1 mps 756 mmHg 82%
    15:00 +29°C° 0 mm 1 mps 755 mmHg 82%
    16:00 +30°C° 0 mm 2 mps 755 mmHg 82%
    17:00 +30°C° 0 mm 2 mps 755 mmHg 81%
    18:00 +29°C° 0 mm 2 mps 755 mmHg 85%
    19:00 +28°C° 0 mm 2 mps 756 mmHg 88%
    20:00 +27°C° 0 mm 2 mps 756 mmHg 91%
    21:00 +27°C° 0 mm 2 mps 757 mmHg 91%
    22:00 +26°C° 0 mm 1 mps 757 mmHg 90%
    23:00 +26°C° 0 mm 1 mps 757 mmHg 90%

    Tomorrow, 23 July, Tuesday

    Time Temperature Precipitation Wind Pressure Humidity
    00:00 +26°C° 0 mm 1 mps 757 mmHg 90%
    01:00 +26°C° 0 mm 1 mps 756 mmHg 91%
    02:00 +26°C° 0 mm 1 mps 756 mmHg 92%
    03:00 +25°C° 0 mm 1 mps 756 mmHg 93%
    04:00 +23°C° 0 mm 0 mps 756 mmHg 94%
    05:00 +23°C° 0 mm 0 mps 756 mmHg 95%
    06:00 +24°C° 0 mm 0 mps 756 mmHg 90%
    07:00 +26°C° 0 mm 0 mps 756 mmHg 85%
    08:00 +29°C° 0 mm 1 mps 757 mmHg 80%
    09:00 +30°C° 0 mm 1 mps 757 mmHg 75%
    10:00 +31°C° 0 mm 1 mps 756 mmHg 70%
    11:00 +33°C° 0 mm 1 mps 756 mmHg 65%
    12:00 +33°C° 0 mm 1 mps 756 mmHg 63%
    13:00 +35°C° 0 mm 2 mps 755 mmHg 62%
    14:00 +35°C° 0 mm 2 mps 754 mmHg 60%
    15:00 +34°C° 0.8 mm 2 mps 754 mmHg 68%
    16:00 +31°C° 0.8 mm 3 mps 754 mmHg 76%
    17:00 +30°C° 0.8 mm 3 mps 754 mmHg 84%
    18:00 +29°C° 1.8 mm 3 mps 755 mmHg 87%
    19:00 +28°C° 1.8 mm 3 mps 756 mmHg 89%
    20:00 +27°C° 1.8 mm 3 mps 757 mmHg 92%
    21:00 +26°C° 0 mm 3 mps 757 mmHg 93%
    22:00 +26°C° 0 mm 3 mps 757 mmHg 93%
    23:00 +26°C° 0 mm 2 mps 757 mmHg 94%

    Day after tomorrow, 24 July, Wednesday

    Time Temperature Precipitation Wind Pressure Humidity
    00:00 +26°C° 0 mm 2 mps 757 mmHg 95%
    01:00 +25°C° 0 mm 2 mps 757 mmHg 96%
    02:00 +25°C° 0 mm 2 mps 756 mmHg 96%
    03:00 +25°C° 0 mm 2 mps 756 mmHg 96%
    04:00 +25°C° 0 mm 2 mps 757 mmHg 96%
    05:00 +25°C° 0 mm 1 mps 757 mmHg 97%
    06:00 +26°C° 0 mm 1 mps 757 mmHg 94%
    07:00 +26°C° 0 mm 1 mps 758 mmHg 92%
    08:00 +27°C° 0 mm 1 mps 758 mmHg 90%
    09:00 +28°C° 0.7 mm 1 mps 758 mmHg 87%
    10:00 +29°C° 0.7 mm 1 mps 758 mmHg 85%
    11:00 +30°C° 0.7 mm 1 mps 758 mmHg 82%
    12:00 +29°C° 2 mm 1 mps 757 mmHg 83%
    13:00 +29°C° 2 mm 2 mps 757 mmHg 85%
    14:00 +29°C° 2 mm 2 mps 756 mmHg 86%
    15:00 +28°C° 1.8 mm 2 mps 756 mmHg 89%
    16:00 +27°C° 1.8 mm 2 mps 756 mmHg 91%
    17:00 +26°C° 1.8 mm 2 mps 756 mmHg 94%
    18:00 +26°C° 0.3 mm 3 mps 756 mmHg 94%
    19:00 +26°C° 0.3 mm 3 mps 757 mmHg 95%
    20:00 +26°C° 0.3 mm 3 mps 758 mmHg 95%
    21:00 +25°C° 0 mm 3 mps 758 mmHg 96%
    22:00 +25°C° 0 mm 2 mps 758 mmHg 96%
    23:00 +25°C° 0 mm 2 mps 758 mmHg 97%

    25 July, Thursday

    Time Temperature Precipitation Wind Pressure Humidity
    00:00 +25°C° 0.2 mm 2 mps 758 mmHg 97%
    01:00 +25°C° 0.2 mm 1 mps 758 mmHg 97%
    02:00 +25°C° 0.2 mm 1 mps 758 mmHg 97%
    03:00 +25°C° 1.9 mm 1 mps 758 mmHg 97%
    04:00 +25°C° 1.9 mm 1 mps 758 mmHg 96%
    05:00 +25°C° 1.9 mm 1 mps 758 mmHg 96%
    06:00 +26°C° 1.7 mm 1 mps 758 mmHg 94%
    07:00 +27°C° 1.7 mm 1 mps 758 mmHg 93%
    08:00 +27°C° 1.7 mm 1 mps 759 mmHg 91%
    09:00 +28°C° 1.6 mm 2 mps 758 mmHg 88%
    10:00 +29°C° 1.6 mm 2 mps 758 mmHg 86%
    11:00 +30°C° 1.6 mm 2 mps 758 mmHg 84%
    12:00 +30°C° 2.6 mm 2 mps 758 mmHg 84%
    13:00 +30°C° 2.6 mm 2 mps 757 mmHg 85%
    14:00 +30°C° 2.6 mm 2 mps 757 mmHg 85%
    15:00 +28°C° 3.2 mm 2 mps 757 mmHg 89%
    16:00 +27°C° 3.2 mm 3 mps 757 mmHg 92%
    17:00 +26°C° 3.2 mm 3 mps 757 mmHg 95%
    18:00 +26°C° 0.5 mm 2 mps 757 mmHg 96%
    19:00 +26°C° 0.5 mm 2 mps 758 mmHg 96%
    20:00 +25°C° 0.5 mm 2 mps 758 mmHg 97%
    21:00 +25°C° 0.1 mm 2 mps 759 mmHg 97%
    22:00 +25°C° 0.1 mm 1 mps 759 mmHg 97%
    23:00 +25°C° 0.1 mm 1 mps 759 mmHg 97%

    26 July, Friday

    Time Temperature Precipitation Wind Pressure Humidity
    00:00 +25°C° 0 mm 1 mps 759 mmHg 97%
    01:00 +25°C° 0 mm 1 mps 758 mmHg 97%
    02:00 +25°C° 0 mm 1 mps 758 mmHg 97%
    03:00 +25°C° 0 mm 1 mps 758 mmHg 97%
    04:00 +25°C° 0 mm 1 mps 758 mmHg 97%
    05:00 +23°C° 0 mm 0 mps 758 mmHg 97%
    06:00 +24°C° 0 mm 0 mps 758 mmHg 95%
    07:00 +26°C° 0 mm 1 mps 759 mmHg 92%
    08:00 +27°C° 0 mm 1 mps 759 mmHg 90%
    09:00 +28°C° 0 mm 1 mps 759 mmHg 84%
    10:00 +30°C° 0 mm 1 mps 759 mmHg 78%
    11:00 +31°C° 0 mm 1 mps 759 mmHg 72%
    12:00 +31°C° 0.1 mm 1 mps 758 mmHg 71%
    13:00 +32°C° 0.1 mm 1 mps 757 mmHg 70%
    14:00 +32°C° 0.1 mm 1 mps 756 mmHg 69%
    15:00 +31°C° 0.5 mm 2 mps 756 mmHg 74%
    16:00 +31°C° 0.5 mm 2 mps 756 mmHg 79%
    17:00 +30°C° 0.5 mm 3 mps 756 mmHg 84%
    18:00 +29°C° 0.2 mm 2 mps 756 mmHg 88%
    19:00 +28°C° 0.2 mm 2 mps 757 mmHg 92%
    20:00 +27°C° 0.2 mm 2 mps 758 mmHg 95%
    21:00 +27°C° 0 mm 2 mps 758 mmHg 95%
    22:00 +26°C° 0 mm 2 mps 758 mmHg 95%
    23:00 +26°C° 0 mm 2 mps 758 mmHg 95%

    27 July, Saturday

    Time Temperature Precipitation Wind Pressure Humidity
    00:00 +26°C° 1.2 mm 2 mps 758 mmHg 96%
    01:00 +26°C° 1.2 mm 1 mps 758 mmHg 97%
    02:00 +26°C° 1.2 mm 1 mps 758 mmHg 98%
    03:00 +26°C° 0.8 mm 1 mps 757 mmHg 97%
    04:00 +25°C° 0.8 mm 1 mps 757 mmHg 97%
    05:00 +25°C° 0.8 mm 1 mps 757 mmHg 97%
    06:00 +26°C° 0 mm 1 mps 757 mmHg 96%
    07:00 +26°C° 0 mm 1 mps 758 mmHg 95%
    08:00 +26°C° 0 mm 1 mps 758 mmHg 93%
    09:00 +27°C° 0 mm 1 mps 758 mmHg 89%
    10:00 +28°C° 0 mm 1 mps 758 mmHg 85%
    11:00 +27°C° 0 mm 0 mps 758 mmHg 82%
    12:00 +30°C° 0.2 mm 1 mps 758 mmHg 78%
    13:00 +31°C° 0.2 mm 1 mps 757 mmHg 74%
    14:00 +32°C° 0.2 mm 1 mps 756 mmHg 70%
    15:00 +32°C° 0.1 mm 1 mps 756 mmHg 72%
    16:00 +31°C° 0.1 mm 1 mps 756 mmHg 75%
    17:00 +31°C° 0.1 mm 1 mps 755 mmHg 77%
    18:00 +30°C° 0 mm 2 mps 756 mmHg 80%
    19:00 +28°C° 0 mm 2 mps 756 mmHg 84%
    20:00 +27°C° 0 mm 2 mps 757 mmHg 87%
    21:00 +27°C° 0 mm 2 mps 757 mmHg 89%
    22:00 +27°C° 0 mm 2 mps 757 mmHg 90%
    23:00 +26°C° 0 mm 2 mps 758 mmHg 92%
    Show more